Location: Unspecified
(32.5099°N, 80.0190°W)
Time: 17:14:27
(UTC-05:00)

CZ-3 Stage 3 - Visible Passes

Search period start: 02 December 2016 00:00
Search period end: 12 December 2016 00:00
Orbit: 475 x 34728 km, 30.6° (Epoch: 01 December)

Date Brightness Start Highest point End Pass type
(mag) Time Alt. Az. Time Alt. Az. Time Alt. Az.
02 Dec 6.9 04:49:41 10° SW 07:26:20 59° SW 14:12:44 10° SE visible
03 Dec 7.8 01:13:37 10° SSE 08:41:32 84° ESE 10:33:24 10° E visible
04 Dec 9.9 00:58:08 10° E 04:53:07 33° ENE 06:33:38 10° ENE visible
05 Dec 6.9 04:40:50 10° SW 07:15:27 59° SW 14:04:06 10° SE visible
06 Dec 7.8 01:04:22 10° SSE 08:31:05 84° ESE 10:24:52 10° E visible
07 Dec 9.9 00:45:03 10° E 04:43:21 33° ENE 06:24:59 10° ENE visible
08 Dec 7.0 04:32:00 10° SW 07:04:39 59° WSW 13:55:29 10° SE visible
09 Dec 7.8 00:55:09 10° SSE 08:20:43 84° ESE 10:16:19 10° E visible
10 Dec 9.9 00:32:00 10° E 04:33:38 33° ENE 06:16:20 10° ENE visible
11 Dec 7.1 04:23:11 10° SW 06:53:57 60° WSW 13:46:51 10° SSE visible
